Regional Weather Roundup
Issued by NWS

Home | Current Version | Previous Version | Text Only | Print | Product List | Glossary Off
Versions: 1 2 3 4 5 6 7 8 9 10 11 12 13 14 15 16 17 18 19 20 21 22 23 24 25 26 27 28 29 30 31 32 33 34 35 36 37 38 39 40 41 42 43 44 45 46 47 48 49 50

000
ASUS43 KLMK 240202
RWRKY
KENTUCKY REGIONAL WEATHER ROUNDUP
NATIONAL WEATHER SERVICE LOUISVILLE KY
1000 PM EDT WED APR 23 2014

NOTE "FAIR" INDICATES FEW OR NO CLOUDS BELOW 12,000 FEET
WITH NO SIGNIFICANT WEATHER AND/OR OBSTRUCTIONS TO VISIBILITY.

KYZ001>023-026-027-061>063-070>075-240300-
WESTERN AND SOUTH CENTRAL KENTUCKY

CITY           SKY/WX    TMP DP  RH WIND       PRES   REMARKS
PADUCAH        CLEAR     59  36  42 E5        30.00R
HENDERSON      MOCLDY    57  39  51 NE5       30.02S
OWENSBORO      CLEAR     58  34  40 NE5       30.03S
HOPKINSVILLE   CLEAR     57  37  47 N5        30.01R
BOWLING GREEN  CLEAR     55  31  39 NE3       30.04R
GLASGOW        NOT AVBL
$$

KYZ024-025-028>034-038-045-046-053-240300-
NORTH CENTRAL KENTUCKY

CITY           SKY/WX    TMP DP  RH WIND       PRES   REMARKS
LOUISVILLE/SDF CLEAR     58  32  37 E6        30.05S
LOUISVILLE/LOU CLEAR     60  31  33 E3        30.06S
FORT KNOX      CLEAR     56  31  38 E6        30.04S
$$

KYZ035>037-039>044-047>052-055>060-089>105-240300-
NORTHEAST KENTUCKY

CITY           SKY/WX    TMP DP  RH WIND       PRES   REMARKS
LEXINGTON      CLEAR     52  33  48 CALM      30.07R
COVINGTON      PTCLDY    53  32  44 NE6       30.08R
FRANKFORT      CLEAR     50  34  54 CALM      30.06R
$$

KYZ054-064>069-076>088-106>120-240300-
SOUTHEAST KENTUCKY

CITY           SKY/WX    TMP DP  RH WIND       PRES   REMARKS
JACKSON        CLEAR     53  30  41 N6        30.05R
LONDON         CLEAR     54  33  45 N5        30.05R
SOMERSET       NOT AVBL
MIDDLESBORO    NOT AVBL
MONTICELLO     CLEAR     50  37  60 NE5       30.07R
$$




USA.gov is the U.S. government's official web portal to all federal, state and local government web resources and services.